Zurück zum Katalog

STARLINK-11523

AktivKommunikationVLEO
NORAD 62565·PAYLOAD·🇺🇸 United States

Gestartet Jan 10, 2025 von Cape Canaveral Space Force Station

Loading…

Nächste Überflüge (nächste 24 Stunden)

TLE

AktuellSource: CelesTrak SupGP

Epoche: Sep 14, 2026, 22:33 UTC

1 62565C 25006M   26257.94006944  .00088778  00000+0  68972-3 0  2574
2 62565  43.0007  79.3878 0001677 278.4492  93.8069 15.70787922    13

Verfolge STARLINK-11523 in Echtzeit mit AllMySat

Download on the App Store